Location: Woodhurst
(52.3667°N, 0.0667°W)
Time: 17:03:48
(UTC+00:00)

SPOT 3 Rocket - Pass Details

Date: 19 May 2025
Orbit: 775 x 790 km, 98.5° (Epoch: 13 June)

Event Time Altitude Azimuth Distance (km) Brightness Sun altitude
Exits shadow 21:43:30 11° 181° (S) 2,247 5.4 -12.1°
Maximum altitude 21:48:20 55° 259° (W) 930 4.0 -12.4°
Drops below altitude 10° 21:53:24 10° 338° (NNW) 2,337 7.5 -12.8°
Sets 21:55:46 0° 342° (NNW) 3,269 8.6 -13.0°
